Weather History for Newport, RI

Change the Weather History Date:

Tuesday, October 16, 2012

  Actual Average Record
Temperature  
Mean Temperature 54 °F -  
Max Temperature 62 °F 64 °F 78 °F (1985)
Min Temperature 46 °F 48 °F 34 °F (1978)
Degree Days  
Heating Degree Days 11    
Growing Degree Days 4 (Base 50)    
Moisture  
Dew Point 43 °F    
Average Humidity 67    
Maximum Humidity 97    
Minimum Humidity 45    
Precipitation  
Precipitation 0.02 in - - ()
Sea Level Pressure  
Sea Level Pressure 29.69 in    
Wind  
Wind Speed 9 mph (WNW)    
Max Wind Speed 17 mph    
Max Gust Speed 24 mph    
Visibility 10 miles    
Events Rain    
Averages and records for this station are not official NWS values.
T = Trace of Precipitation, MM = Missing Value Source: NWS Daily Summary

Daily Weather History Graph

Daily Weather History Graph

Search for Another Location

Airport:

Trip Planner

Search our weather history database for the weather conditions in past years. The results will help you decide how hot, cold, wet, or windy it might be!

Date:

Astronomy

Oct. 16, 2012 Rise Set
Actual Time 6:58 AM EDT 6:01 PM EDT
Civil Twilight 6:30 AM EDT 6:29 PM EDT
Nautical Twilight 5:58 AM EDT 7:01 PM EDT
Astronomical Twilight 5:26 AM EDT 7:33 PM EDT
Moon 8:19 AM EDT (10/16) 6:42 PM EDT (10/16)
Length of Visible Light 11h 58m
Length of Day
11h 02m
New Moon, 2% of the Moon is Illuminated
Oct 16
New Moon
Oct 21
First Quarter
Oct 29
Full
Nov 6
Last Quarter
Nov 13
New

Hourly Weather History & Observations

Time (EDT) Temp. Dew Point Humidity Pressure Visibility Wind Dir Wind Speed Gust Speed Precip Events Conditions
12:04 AM 62.6 °F 60.8 °F 94% 29.62 in 10.0 mi SSW 6.9 mph 16.1 mph N/A   Overcast
12:53 AM 62.1 °F 59.0 °F 90% 29.61 in 10.0 mi Variable 3.5 mph - N/A   Overcast
1:23 AM 62.6 °F 60.8 °F 94% 29.60 in 8.0 mi SSW 3.5 mph - 0.00 in Rain Light Rain
1:53 AM 61.0 °F 60.1 °F 97% 29.60 in 6.0 mi Variable 3.5 mph - 0.01 in Rain Light Rain
2:53 AM 60.1 °F 57.0 °F 90% 29.59 in 10.0 mi WNW 5.8 mph - 0.00 in Rain Light Rain
3:53 AM 59.0 °F 55.9 °F 90% 29.56 in 10.0 mi WNW 8.1 mph - 0.00 in Rain Light Rain
4:53 AM 55.0 °F 51.1 °F 86% 29.58 in 10.0 mi NW 11.5 mph - 0.01 in Rain Light Rain
5:53 AM 54.0 °F 46.0 °F 75% 29.60 in 10.0 mi NNW 12.7 mph 20.7 mph 0.00 in   Overcast
6:53 AM 53.1 °F 45.0 °F 74% 29.60 in 10.0 mi NW 12.7 mph - N/A   Overcast
8:53 AM 52.0 °F 42.1 °F 69% 29.66 in 10.0 mi WNW 12.7 mph 21.9 mph N/A   Scattered Clouds
9:53 AM 52.0 °F 36.0 °F 54% 29.67 in 10.0 mi NW 17.3 mph 24.2 mph N/A   Clear
10:53 AM 53.1 °F 37.0 °F 55% 29.65 in 10.0 mi WNW 15.0 mph 24.2 mph N/A   Clear
11:53 AM 54.0 °F 36.0 °F 51% 29.67 in 10.0 mi WNW 15.0 mph 21.9 mph N/A   Clear
12:53 PM 55.0 °F 36.0 °F 49% 29.66 in 10.0 mi NW 15.0 mph 21.9 mph N/A   Clear
1:53 PM 55.0 °F 36.0 °F 49% 29.68 in 10.0 mi NW 11.5 mph - N/A   Clear
2:53 PM 55.9 °F 35.1 °F 45% 29.68 in 10.0 mi NW 10.4 mph 21.9 mph N/A   Clear
3:53 PM 57.0 °F 36.0 °F 45% 29.70 in 10.0 mi NW 13.8 mph 20.7 mph N/A   Clear
4:53 PM 55.0 °F 35.1 °F 47% 29.72 in 10.0 mi NW 9.2 mph - N/A   Clear
5:53 PM 53.1 °F 35.1 °F 50% 29.75 in 10.0 mi NW 10.4 mph - N/A   Clear
6:53 PM 51.1 °F 35.1 °F 54% 29.79 in 10.0 mi NW 8.1 mph - N/A   Clear
7:53 PM 50.0 °F 37.0 °F 61% 29.81 in 10.0 mi WNW 4.6 mph - N/A   Clear
8:53 PM 50.0 °F 37.9 °F 63% 29.83 in 10.0 mi WNW 6.9 mph - N/A   Clear
9:53 PM 48.9 °F 37.0 °F 64% 29.86 in 10.0 mi WNW 6.9 mph - N/A   Clear
10:53 PM 46.9 °F 37.9 °F 71% 29.87 in 10.0 mi WNW 6.9 mph - N/A   Clear
11:53 PM 46.9 °F 37.0 °F 68% 29.87 in 10.0 mi NW 11.5 mph - N/A   Clear